Banff, Canada 16 day weather forecast

Slopes altitude range 1630 m - 2730m

Number of lifts: 26 Pistes: 120km

In some cases the lift and piste totals shown are for the ski domain (e.g. Three Valleys) rather than individual resort (e.g. Courchevel)

Overview

The 16 day weather forecast is fully updated 4 times every day.

    • Tue 24 APR 2018
    • Tue 24
    • -6C -5C
    • Wed 25 APR 2018
    • Wed 25
    • -2C -2C
    • Thu 26 APR 2018
    • Thu 26
    • -3C -2C
    • Fri 27 APR 2018
    • Fri 27
    • 0C 2C
    • Sat 28 APR 2018
    • Sat 28
    • 2C 3C
    • Sun 29 APR 2018
    • Sun 29
    • 3C 5C
    • Mon 30 APR 2018
    • Mon 30
    • -5C -3C
    • Tue 01 MAY 2018
    • Tue 01
    • -1C 1C
    • Wed 02 MAY 2018
    • Wed 02
    • 0C 1C
    • Thu 03 MAY 2018
    • Thu 03
    • -5C -5C
    • Fri 04 MAY 2018
    • Fri 04
    • -3C 10C
    • Sat 05 MAY 2018
    • Sat 05
    • 2C 16C
    • Sun 06 MAY 2018
    • Sun 06
    • 6C 20C
    • Mon 07 MAY 2018
    • Mon 07
    • 8C 21C
    • Tue 08 MAY 2018
    • Tue 08
    • 4C 9C
    • Wed 09 MAY 2018
    • Wed 09
    • -2C 11C

Date:

Time Type 0°C level Temp Chill Snow Cloud Speed Gust Dir Press
3:00 1545m -4°C -4_4 0cm 0% 4mph 4mph 1030mB
6:00 1252m -5°C -5_4 0cm 0% 4mph 5mph 1032mB
9:00 1168m -6°C -6_5 0cm 0% 5mph 5mph 1032mB
12:00 1164m -5°C -5_5 0cm 16% 5mph 6mph 1032mB
15:00 2035m 0°C 0_6 0cm 56% 6mph 7mph 1028mB
18:00 2679m 4°C 4_6 0cm 72% 6mph 9mph 1024mB
21:00 2866m 4°C 4_6 0cm 100% 6mph 9mph 1021mB
0:00 2848m 4°C 4_5 0cm 100% 5mph 8mph 1019mB
3:00 2705m 0°C 0_5 0cm 99% 5mph 6mph 1020mB
6:00 1814m -2°C -2_5 0cm 99% 5mph 6mph 1021mB
9:00 1713m -2°C -2_4 0cm 100% 4mph 5mph 1021mB
12:00 1739m -2°C -2_3 0cm 99% 3mph 4mph 1021mB
15:00 2153m 1°C 1_4 0cm 99% 4mph 6mph 1021mB
18:00 2079m 2°C 2_5 1cm 83% 5mph 6mph 1021mB
21:00 2333m 0°C 0_2 1cm 92% 2mph 2mph 1021mB
0:00 2497m 0°C 0_3 1cm 78% 3mph 4mph 1020mB
3:00 1967m -1°C -1_2 0cm 3% 2mph 2mph 1023mB
6:00 1787m -2°C -2_2 0cm 2% 2mph 3mph 1025mB
9:00 1723m -2°C -2_3 0cm 4% 3mph 4mph 1026mB
12:00 1689m -2°C -2_4 0cm 3% 4mph 5mph 1025mB
15:00 3467m 3°C 3_5 0cm 22% 5mph 6mph 1022mB
18:00 3697m 8°C 8_5 0cm 35% 5mph 6mph 1020mB
21:00 3730m 8°C 8_4 0cm 61% 4mph 6mph 1017mB
0:00 3654m 8°C 8_4 0cm 48% 4mph 5mph 1015mB
3:00 3667m 3°C 3_3 0cm 71% 3mph 4mph 1016mB
6:00 3608m 1°C 1_4 0cm 79% 4mph 4mph 1016mB
9:00 3568m 1°C 1_3 0cm 10% 3mph 4mph 1016mB
12:00 2591m 2°C 2_3 0cm 25% 3mph 3mph 1015mB
15:00 3575m 7°C 7_2 0cm 55% 2mph 2mph 1013mB
18:00 3635m 13°C 13_1 0cm 52% 1mph 2mph 1010mB
21:00 3445m 13°C 13_1 0cm 66% 1mph 3mph 1007mB
0:00 3527m 13°C 13_1 0cm 56% 1mph 4mph 1005mB
3:00 3525m 5°C 5_1 0cm 54% 1mph 2mph 1005mB
6:00 3536m 3°C 3_2 0cm 67% 2mph 3mph 1005mB
9:00 3567m 3°C 3_2 0cm 91% 2mph 3mph 1003mB
12:00 3442m 3°C 3_3 0cm 85% 3mph 3mph 1001mB
15:00 3566m 9°C 9_2 0cm 91% 2mph 3mph 998mB
18:00 3450m 14°C 14_4 0cm 89% 4mph 5mph 995mB
21:00 3459m 14°C 14_5 0cm 100% 5mph 7mph 992mB
0:00 3332m 12°C 12_4 0cm 99% 4mph 5mph 991mB
3:00 3171m 7°C 7_4 0cm 99% 4mph 5mph 992mB
6:00 2976m 5°C 5_4 0cm 100% 4mph 6mph 993mB
9:00 2795m 4°C 4_3 0cm 100% 3mph 3mph 994mB
12:00 2609m 5°C 5_4 0cm 100% 4mph 7mph 996mB
15:00 2315m 3°C 3_5 6cm 100% 5mph 8mph 999mB
18:00 2167m 3°C 3_5 8cm 100% 5mph 6mph 1002mB
21:00 2177m 1°C 1_4 2cm 100% 4mph 5mph 1003mB
0:00 2086m 0°C 0_4 4cm 100% 4mph 6mph 1005mB
3:00 1855m -2°C -2_4 3cm 100% 4mph 6mph 1009mB
6:00 1682m -3°C -3_4 5cm 100% 4mph 6mph 1012mB
9:00 1533m -4°C -4_4 1cm 100% 4mph 6mph 1013mB
12:00 1398m -3°C -3_3 2cm 99% 3mph 4mph 1014mB
15:00 1926m -1°C -1_4 1cm 74% 4mph 6mph 1013mB
18:00 2263m 3°C 3_5 1cm 78% 5mph 7mph 1009mB
21:00 2428m 2°C 2_6 1cm 96% 6mph 9mph 1006mB
0:00 2466m 2°C 2_6 4cm 97% 6mph 10mph 1005mB
3:00 2145m 0°C 0_4 2cm 100% 4mph 5mph 1008mB
6:00 1712m -2°C -2_2 2cm 99% 2mph 3mph 1011mB
9:00 1841m 0°C 0_3 1cm 100% 3mph 7mph 1013mB
12:00 1637m 1°C 1_2 2cm 100% 2mph 6mph 1016mB
15:00 1852m 2°C 2_1 1cm 100% 1mph 5mph 1017mB
18:00 2087m 6°C 6_3 1cm 85% 3mph 5mph 1015mB
21:00 2351m 6°C 6_5 0cm 43% 5mph 9mph 1012mB
0:00 2534m 6°C 6_5 0cm 57% 5mph 10mph 1011mB
3:00 2597m 3°C 3_5 0cm 34% 5mph 6mph 1012mB
6:00 2525m 0°C 0_7 0cm 17% 7mph 8mph 1014mB
9:00 2275m 0°C 0_7 0cm 34% 7mph 7mph 1013mB
12:00 2300m 1°C 1_7 0cm 66% 7mph 9mph 1012mB
15:00 2635m 5°C 5_6 0cm 100% 6mph 10mph 1008mB
18:00 2492m 9°C 9_7 0cm 83% 7mph 20mph 1003mB
21:00 2634m 9°C 9_19 0cm 6% 19mph 32mph 1004mB
0:00 2000m 3°C 3_8 2cm 50% 8mph 25mph 1011mB
3:00 1448m -2°C -2_7 1cm 65% 7mph 23mph 1017mB
6:00 967m -5°C -5_5 1cm 38% 5mph 5mph 1021mB
9:00 906m -5°C -5_5 0cm 0% 5mph 6mph 1023mB
12:00 897m -5°C -5_6 0cm 3% 6mph 6mph 1026mB
15:00 1705m 1°C 1_5 0cm 0% 5mph 8mph 1025mB
18:00 1932m 5°C 5_5 0cm 0% 5mph 8mph 1023mB
Morning 0.458333mm 0 1532m -2°C -2_5 0cm 70% 5mph 5mph 1024mB
Afternoon 0.197917mm 0 2460m 10°C 10_4 0cm 27% 4mph 7mph 1021mB
Morning 0.00520833mm 0 2976m 3°C 3_5 0cm 32% 5mph 6mph 1022mB
Afternoon 0.0572917mm 0 3095m 16°C 16_5 0cm 48% 5mph 7mph 1019mB
Morning 0.817708mm 0 3586m 7°C 7_6 0cm 22% 6mph 7mph 1019mB
Afternoon 0.489583mm 0 3512m 20°C 20_3 0cm 55% 3mph 4mph 1017mB
Morning 1.14062mm 0 3749m 10°C 10_6 0cm 27% 6mph 7mph 1016mB
Afternoon 0.28125mm 0 3733m 21°C 21_12 0cm 43% 12mph 23mph 1008mB
Morning 0.776042mm 0 3663m 9°C 9_7 0cm 40% 7mph 13mph 1007mB
Afternoon 0.385417mm 2.8125 2140m 9°C 9_4 22cm 38% 4mph 7mph 1017mB
Morning 0.135417mm 0.8125 1626m -1°C -1_5 0cm 62% 5mph 6mph 1019mB
Afternoon 0.385417mm 0 2685m 11°C 11_6 0cm 60% 6mph 11mph 1006mB

16 day outlook at a glance

Forecast issued: 24/04/2018 05:25:09

Chat

Your comments and questions. In a resort? Let us know what it's like!


Characters left 250

For terms and conditions see Readers Comments on the Cookie and privacy policy page.